Retour au catalogue

CZ-6A DEB

ActifPO
NORAD 64657·DEBRIS·🇨🇳 China

Lancé Aug 6, 2024 depuis Taiyuan Satellite Launch Center

Loading…

Prochains Passages (prochaines 24 heures)

TLE

FraisSource: Space-Track

Époque: Sep 14, 2026, 05:57 UTC

1 64657U 24140AEX 26257.24836494  .00002547  00000-0  80660-3 0  9992
2 64657  88.3054 197.9316 0040759  87.7947 272.7919 14.39348105 99172

Suivez CZ-6A DEB en temps réel avec AllMySat

Download on the App Store